Home > Weather > Serekunda > Past weeks

Flag for Gambia Past Weather in Serekunda, Gambia — Yesterday and Last 2 Weeks

Now
90 °F

Passing clouds.


Feels Like: 100 °F
Forecast: N/A
Wind: 9 mph from West

Location: Banjul / Yundum

Current Time: Jul 1, 2016 at 3:28:00 PM

Latest Report: Jul 1, 2016 at 3:00 PM


Visibility: N/A

Pressure: 29.92 "Hg

Humidity: 63%

Dew Point: 75 °F

Location of SerekundaLocation

Past Weather in Serekunda — Graph

°F

Serekunda Temperature Yesterday

Maximum temperature yesterday: 84 °F (at 10:00 AM)
Minimum temperature yesterday: 72 °F (at 2:00 PM)
Average temperature yesterday: 78 °F

High & Low Weather Summary for the Past Weeks

 TemperatureHumidityPressure
High93 °F (Jun 19, 2:00 PM)100% (Jun 30, 2:00 PM)30.04 "Hg (Jun 30, 2:00 PM)
Low72 °F (Jun 17, 3:00 AM)32% (Jun 20, 3:00 PM)29.80 "Hg (Jun 21, 6:00 AM)
Average81 °F74%29.92 "Hg
* Reported Jun 16 2:00 PM — Jul 1 2:00 PM, Serekunda, Weather by CustomWeather, © 2016

Note: Actual official high and low records may vary slightly from our data, if they occured in-between our weather recording intervals... More about our weather records

Advertising

Serekunda Weather History for the Previous 24 Hours

Scroll right to see more
 ConditionsComfort  
Time TempWeatherWind HumidityBarometerVisibility
2:00 PM
Fri, Jul 1
88 °FPassing clouds.9 mph66%29.95 "HgN/A
1:00 PM86 °FScattered clouds.6 mph66%29.95 "HgN/A
12:00 PM86 °FScattered clouds.10 mph66%29.98 "HgN/A
11:00 AM84 °FScattered clouds.6 mph74%30.01 "HgN/A
10:00 AM82 °FPartly sunny.6 mph79%30.01 "HgN/A
9:00 AM79 °FPartly sunny.6 mph89%30.01 "HgN/A
8:00 AM75 °FPartly sunny.3 mph100%29.98 "HgN/A
7:00 AM73 °FScattered clouds.2 mph100%29.95 "HgN/A
6:00 AM73 °FClear.3 mph100%29.95 "Hg10 mi
5:00 AM75 °FClear.3 mph89%29.95 "Hg10 mi
4:00 AM75 °FClear.2 mph89%29.95 "Hg10 mi
3:00 AM75 °FClear.5 mph89%29.92 "Hg10 mi
2:00 AM75 °FPassing clouds.5 mph94%29.95 "HgN/A
1:00 AM77 °FPassing clouds.1 mph89%29.95 "HgN/A
12:00 AM75 °FPassing clouds.2 mph94%29.98 "HgN/A
11:00 PM
Thu, Jun 30
75 °FPassing clouds.2 mph94%29.98 "HgN/A
10:00 PM75 °FPassing clouds.6 mph94%29.95 "HgN/A
9:00 PM75 °FPassing clouds.3 mph94%29.95 "HgN/A
8:00 PM75 °FPassing clouds.5 mph94%29.95 "HgN/A
7:00 PM75 °FPartly sunny.2 mph94%29.92 "HgN/A
6:00 PM75 °FBroken clouds.5 mph94%29.92 "HgN/A
5:00 PM73 °FBroken clouds.3 mph100%29.89 "HgN/A
4:00 PM73 °FThunderstorms. Broken clouds.6 mph100%29.92 "Hg5 mi
3:00 PM73 °FThunderstorms. Broken clouds.2 mph94%29.98 "Hg5 mi
Weather by CustomWeather, © 2016

See weather overviewHow to use our weather pages